www.pogodaiklimat.ru

Погода и климат >> Архив погоды >> Латвия >> Елгава


ПОГОДА в Елгаве

  • Прогноз погоды в Елгаве
  • Монитор погоды в Елгаве

АРХИВ ПОГОДЫ в Елгаве

Время (UTC), дата Ветер
(напр.,м/с)
 
Видим.   Явления Облачность Т
(С)
Тd
(С)
f
(%)
Тe
(С)
Тes
(С)
Комфортность P
(гПа)
Po
(гПа)
Тmin
(С)
Tmax
(С)
R
(мм)
R24
(мм)
S
(см)
12 10.07 С 5-10
{10}
15 км н/о +15.2 +12.4 83 +14 +14 1006.3 1005.5
15 10.07 20 км н/о
18 10.07 С 3-4
{6}
н/о н/о +15.1 +12.5 84 +14 +14 1007.6 1006.5
21 10.07 СЗ 2-3
{4}
н/о н/о +12.2 +11.5 95 +11 +11 1008.0 1007.2
00 11.07 З 1-2
{3}
13 км н/о +9.2 +9.0 99 +8 +8 1008.0 1006.9
03 11.07 З 2-2
{3}
12 км н/о +11.5 +11.1 97 +10 +10 1007.7 1006.6
06 11.07 З 2-2
{3}
20 км н/о +14.1 +12.7 91 +14 +14 1007.8 1006.9
09 11.07 З 3-5
{6}
19 км н/о +19.6 +9.4 52 +21 +21 комфорт 1007.4 1006.4
12 11.07 С 2-3
{7}
20 км н/о +18.0 +11.0 64 +19 +19 1006.7 1005.6
15 11.07 С 4-6
{6}
20 км н/о +16.6 +13.6 82 +16 +16 1007.3 1006.2
18 11.07 СЗ 2-3
{4}
20 км н/о +16.4 +12.7 79 +17 +17 1007.2 1006.1
21 11.07 С 1-2
{3}
19 км н/о +14.0 +13.1 94 +14 +14 1007.7 1006.6
00 12.07 С 3-4
{4}
19 км н/о +13.1 +11.9 92 +12 +12 1008.2 1007.1
03 12.07 СВ 2-4
{4}
20 км н/о +10.8 +9.6 92 +9 +9 1008.8 1007.7
06 12.07 СВ 3-5
{5}
20 км н/о +15.2 +8.6 65 +15 +15 1009.9 1008.8
09 12.07 С 4-6
{7}
19 км н/о +17.4 +6.8 50 +17 +17 1010.2 1009.1
12 12.07 СЗ 3-6
{7}
20 км н/о +18.4 +7.1 48 +19 +19 1010.1 1009.0
15 12.07 С 4-6
{8}
19 км н/о +18.0 +2.2 35 +18 +18 1010.1 1009.0
18 12.07 С 3-4
{5}
20 км н/о +15.1 +6.8 58 +15 +15 1010.3 1009.2
21 12.07 З 1-1
{2}
20 км н/о +9.4 +8.0 91 +9 +9 1010.8 1010.0
00 13.07 В 1-2
{2}
20 км н/о +8.1 +7.9 99 +7 +7 1010.8 1009.7
03 13.07 штиль 0
{2}
20 км н/о +7.3 +6.8 97 +6 +6 1010.5 1009.4
06 13.07 СЗ 2-3
{3}
19 км н/о +15.4 +8.5 63 +15 +15 1010.6 1009.5
12 13.07 СЗ 3-6
{6}
20 км н/о +20.1 +7.1 43 +21 +21 комфорт 1009.7 1008.6
15 13.07 С 4-8
{8}
18 км н/о +19.2 +6.2 43 +20 +20 1009.7 1008.6
18 13.07 С 2-4
{6}
20 км н/о +15.5 +7.9 61 +15 +15 1010.2 1009.1
21 13.07 СЗ 2-2
{2}
18 км н/о +13.2 +11.0 87 +12 +12 1011.0 1009.9
00 14.07 СЗ 1-2
{3}
19 км н/о +11.5 +8.9 84 +11 +11 1011.3 1010.4
03 14.07 З 2-2
{2}
20 км н/о +9.1 +8.0 93 +7 +7 1011.1 1010.0
06 14.07 С 3-5
{5}
20 км н/о +16.7 +12.6 77 +16 +16 1011.4 1010.3
09 14.07 С 1-2
{5}
19 км н/о +19.0 +8.8 52 +21 +21 комфорт 1011.6 1010.7
15 14.07 С 4-6
{8}
20 км н/о +20.5 +4.8 36 +21 +21 комфорт 1011.4 1010.3
18 14.07 С 2-4
{5}
н/о н/о +17.7 +8.2 54 +18 +18 1011.8 1010.7
21 14.07 СЗ 1-2
{2}
20 км н/о +11.2 +9.0 86 +11 +11 1012.4 1011.3
00 15.07 З 2-2
{2}
19 км н/о +9.2 +8.8 97 +7 +7 1012.3 1011.2
03 15.07 З 1-1
{3}
18 км н/о +8.5 +8.1 97 +8 +8 1012.4 1011.3
06 15.07 СЗ 2-4
{4}
20 км н/о +17.0 +10.5 66 +17 +17 1012.3 1011.2
09 15.07 СВ 3-5
{5}
20 км н/о +20.0 +7.6 45 +21 +21 комфорт 1012.3 1011.2
12 15.07 Ю 2-3
{5}
н/о н/о +21.4 +7.2 40 +22 +22 комфорт 1011.3 1010.3
15 15.07 СЗ 1-2
{6}
20 км н/о +21.3 +10.5 50 +23 +23 комфорт 1010.5 1009.7
18 15.07 СЗ 2-3
{7}
19 км н/о +15.3 +13.1 87 +15 +15 1011.0 1009.9 0.2
21 15.07 Ю 1-2
{2}
15 км н/о +10.8 +10.4 97 +10 +10 1010.7 1009.6
00 16.07 Ю 2-3
{4}
19 км н/о +10.8 +10.0 95 +9 +9 1009.2 1008.1
03 16.07 Ю 2-3
{3}
19 км н/о +11.6 +10.6 94 +10 +10 1008.2 1007.1
06 16.07 Ю 2-3
{4}
12 км н/о +13.1 +12.6 97 +12 +12 1007.4 1006.3 0.6
09 16.07 ЮВ 2 н/о н/о +12.9 +12.4 97 +12 +12 1006.6 1005.7
12 16.07 ЮЗ 2-3
{4}
20 км н/о +15.5 +12.2 81 +15 +15 1006.0 1004.9
15 16.07 В 2-3
{3}
19 км н/о +16.1 +13.5 85 +16 +16 1005.9 1004.8 1
18 16.07 З 1-1
{4}
20 км н/о +13.8 +12.5 92 +14 +14 1006.2 1005.1
21 16.07 -4
{4}
11 км н/о +13.1 +12.6 97 1006.5 1005.4 0.5
00 17.07 СЗ 2-2
{3}
12 км н/о +12.5 +12.3 99 +11 +11 1006.3 1005.2
03 17.07 С 2-3
{3}
7000 м н/о +12.4 +12.0 97 +11 +11 1006.3 1005.2 0.5
06 17.07 СЗ 2-3
{4}
20 км н/о +13.8 +12.9 94 +13 +13 1006.4 1005.3
09 17.07 С 4-6
{7}
19 км н/о +17.9 +14.1 78 +18 +18 1006.7 1005.6

 

Местоположение метеостанции Елгава (Латвия): широта 56.65 долгота 23.73 высота над уровнем моря 9 м.

В архиве по умолчанию представлена погода в Елгаве за последнюю неделю. Архивные данные за месяц целиком и за предыдущие месяцы, начиная с января 2011 года, Вы можете получить, выбрав интересующий диапазон дат из раскрывающегося списка и нажав кнопку "Ввод!".


*Определитесь, кто Вы:
робот инопланетянин человек

Внимание! Время в таблицах - всемирное. Для получения местного времени необходимо прибавить поправку, которая равна 2 ч.

Смотрите также архив погоды в соседних городах и на ближайших метеорологических станциях:

Погода в Добеле (Латвия) (25 км)
Погода в Риге (Латвия) (41 км)
Погода в Бауске (Латвия) (41 км)
Погода в Салдусе (Латвия) (75 км)
Погода в Биржае (Литва) (81 км)
Погода в Шяуляе (Литва) (84 км)
Погода в Скульте (Латвия) (85 км)
Погода в Скриверу (Латвия) (86 км)
Погода в Мерсрагсе (Латвия) (86 км)
Погода в Мажейкяе (Литва) (93 км)

Пояснения к столбцам:

Ветер - указаны скорость ветра в м/с - средняя за 10 мин, порывы в срок и между сроками (в фигурных скобках) и направление, откуда дует ветер: С - северный, СВ - северо-восточный, В - восточный, ЮВ - юго-восточный, Ю - южный, ЮЗ - юго-западный, З - западный, СЗ - северо-западный.
Видимость - горизонтальная дальность видимости в метрах или километрах. При видимости от 1 до 10 км при отсутствии осадков обычно наблюдается дымка, при ухудшении видимости до 1 км и менее - туман. В сухую погоду видимость может ухудшаться дымом, пылью или мглою.
Явления - указаны атмосферные явления, наблюдавшиеся в срок или в последний час перед сроком; фигурными скобками обозначены явления, наблюдавшиеся между сроками (за 1-3 часа до срока); квадратными скобками обозначены град или гололедные отложения с указанием их диаметра в мм.
Облачность - указаны через наклонную черту общая и нижняя облачность в баллах и высота нижней границы облаков в метрах; квадратными скобками обозначены формы облаков: Ci - перистые, Cs - перисто-слоистые, Cc - перисто-кучевые, Ac - высококучевые, As - высокослоистые, Sc - слоисто-кучевые, Ns - слоисто-дождевые, Cu - кучевые, Cb - кучево-дождевые. Подробнее классификацию облаков см. в Атласе облаков (PDF).
T - Температура воздуха - температура, измеренная на высоте 2 м над землей.
Td - Температура точки росы - температура, при понижении до которой содержащийся в воздухе водяной пар достигнет насыщения.
f - Относительная влажность воздуха - влажноcть воздуха, измеренная на высоте 2 м над землей.
Te - Эффективная температура - температура, которую ощущает одетый по сезону человек в тени. Характеристика душности погоды. При расчете учитывается влияние влажности воздуха и скорости ветра на теплоощущения человека.
Tes - Эффективная температура на солнце - температура, которую ощущает человек, с поправкой на солнечный нагрев. Характеристика знойности погоды. Зависит от высоты солнца над горизонтом, облачности и скорости ветра. Ночью, в пасмурную погоду, а также при ветре 12 м/с и более поправка равна нулю.
P - Атмосферное давление - приведенное к уровню моря атмосферное давление.
Po - Атмосферное давление - измеренное на уровне метеостанции атмосферное давление.
Tmin - Минимальная температура - минимум температуры воздуха на высоте 2 м над землей.
Tmax - Максимальная температура - максимум температуры воздуха на высоте 2 м над землей.
R - Количество осадков - Количество выпавших осадков за период времени, мм. При наведении курсора мыши на число - период времени, за который выпало указанное количество осадков.
R24 - Количество осадков - Количество выпавших осадков за 24 часа, мм.
S - Снежный покров - Высота снежного покрова, см. При наведении курсора мыши на число - состояние снежного покрова и степень покрытия местности в баллах.